This is the latest recevied weather packets stored in our database for station/object AJ7DN. If no packets are shown the sender has not sent any weather packets the latest 10 day(s).
| Time | Temp. | Humidity | Pressure | Rain* | Wind** | Luminosity | Snow |
|---|---|---|---|---|---|---|---|
| 1777841588 | 32.22° C | 28% | 1013.4 hPa | 0 mm | - | 717 W/m² | - |
| 1777841285 | 32.78° C | 28% | 1013.5 hPa | 0 mm | - | 713 W/m² | - |
| 1777840983 | 32.78° C | 29% | 1013.7 hPa | 0 mm | - | 700 W/m² | - |
| 1777840680 | 32.22° C | 31% | 1013.9 hPa | 0 mm | - | 690 W/m² | - |
| 1777840377 | 32.22° C | 30% | 1013.9 hPa | 0 mm | - | 703 W/m² | - |
| 1777840074 | 31.67° C | 32% | 1013.9 hPa | 0 mm | - | 721 W/m² | - |
| 1777839772 | 31.67° C | 31% | 1014.1 hPa | 0 mm | - | 738 W/m² | - |
| 1777839469 | 31.67° C | 31% | 1013.9 hPa | 0 mm | - | 737 W/m² | - |
| 1777839167 | 31.11° C | 31% | 1013.9 hPa | 0 mm | - | 734 W/m² | - |
| 1777838863 | 31.11° C | 32% | 1014.1 hPa | 0 mm | - | 724 W/m² | - |
| 1777838559 | 31.11° C | 32% | 1014.2 hPa | 0 mm | - | 744 W/m² | - |
| 1777838256 | 31.11° C | 33% | 1014.1 hPa | 0 mm | - | 751 W/m² | - |
| 1777837953 | 31.11° C | 33% | 1014.1 hPa | 0 mm | - | 768 W/m² | - |
| 1777837652 | 30° C | 35% | 1014.4 hPa | 0 mm | - | 734 W/m² | - |
| 1777837346 | 30° C | 35% | 1014.5 hPa | 0 mm | - | 679 W/m² | - |
| 1777837043 | 29.44° C | 39% | 1014.3 hPa | 0 mm | - | 721 W/m² | - |
| 1777836739 | 29.44° C | 37% | 1014.6 hPa | 0 mm | - | 788 W/m² | - |
| 1777836435 | 30° C | 36% | 1014.5 hPa | 0 mm | - | 752 W/m² | - |
| 1777836130 | 29.44° C | 37% | 1014.6 hPa | 0 mm | - | 761 W/m² | - |
| 1777835827 | 29.44° C | 37% | 1014.8 hPa | 0 mm | - | 771 W/m² | - |
| 1777835524 | 30° C | 38% | 1014.9 hPa | 0 mm | - | 764 W/m² | - |
| 1777835221 | 28.89° C | 39% | 1014.6 hPa | 0 mm | - | 769 W/m² | - |
| 1777834918 | 28.89° C | 40% | 1014.7 hPa | 0 mm | - | 781 W/m² | - |
| 1777834615 | 28.33° C | 40% | 1014.8 hPa | 0 mm | - | 788 W/m² | - |
| 1777834310 | 27.78° C | 40% | 1014.9 hPa | 0 mm | - | 805 W/m² | - |
* Rain latest hour (hover to see other rain measurements)
** Current wind speed in m/s (hover to see current wind gust speed)